Tracking 19795 objects as of 17-Jul-2019
HD Live streaming from Space Station
objects crossing your sky now

FENGYUN 1C DEB

Track FENGYUN 1C DEB now!
10-day predictions


NORAD ID: 31971
Int'l Code: 1999-025CNY
Perigee: 789.3 km
Apogee: 805.3 km
Inclination: 102.3 °
Period: 100.7 minutes
Semi major axis: 7168 km
RCS: 0.0103 m2 (small)
Launch date: May 10, 1999
Source: People's Republic of China (PRC)
Launch site: Taiyaun Space Center, China (TSC)

Note: This is SATELLITE DEBRIS
aabbcc
Your satellite tracking list
Your tracking list is empty




NASA's NSSDC Master Catalog

Two Line Element Set (TLE):
1 31971U 99025CNY 19197.16019972  .00001005  00000-0  41519-3 0  9997
2 31971 102.2679 173.4392 0011173 174.7783 250.1470 14.30466746625080
Source of the keplerian elements: AFSPC